EFW62T LIMF-EGKK

Flight info

Callsign EFW62T
Flight time 1h 23m
Altitude 36000
Route KUKEV DCT MOLUS DCT IBODI DCT GOTED DCT TRO DCT CLM DCT KOPOR DCT KESAX DCT KUNAV
Aircraft A320/M-SDE3FGHIRWY/LB1

Departure

Time 2026-05-05 15:13
Airport Turin Airport (LIMF)

Arrival

Time 2026-05-05 16:37
Airport London Gatwick Airport (EGKK)
Time Latitude Longitude Altitude Speed Heading
2026-05-05 14:51 45.19268 7.64517 992 ft 0 kts 258°
2026-05-05 15:03 45.19268 7.64519 992 ft 1 kts 258°
2026-05-05 15:03 45.19271 7.64539 992 ft 2 kts 258°
2026-05-05 15:03 45.19275 7.64560 992 ft 2 kts 258°
2026-05-05 15:03 45.19278 7.64581 992 ft 2 kts 258°
2026-05-05 15:04 45.19281 7.64601 992 ft 2 kts 258°
2026-05-05 15:04 45.19284 7.64622 992 ft 2 kts 258°
2026-05-05 15:04 45.19286 7.64635 992 ft 2 kts 258°
2026-05-05 15:04 45.19292 7.64654 992 ft 2 kts 227°
2026-05-05 15:05 45.19315 7.64672 992 ft 0 kts 185°
2026-05-05 15:05 45.19322 7.64672 992 ft 0 kts 182°
2026-05-05 15:05 45.19323 7.64672 992 ft 0 kts 182°
2026-05-05 15:06 45.19319 7.64672 992 ft 2 kts 182°
2026-05-05 15:07 45.19266 7.64668 992 ft 12 kts 183°
2026-05-05 15:07 45.19156 7.64660 992 ft 18 kts 182°
2026-05-05 15:07 45.19029 7.64652 992 ft 17 kts 182°
2026-05-05 15:07 45.18910 7.64646 992 ft 16 kts 184°
2026-05-05 15:08 45.18807 7.64638 992 ft 14 kts 183°
2026-05-05 15:08 45.18722 7.64633 992 ft 12 kts 182°
2026-05-05 15:08 45.18653 7.64647 992 ft 5 kts 148°
2026-05-05 15:08 45.18650 7.64651 992 ft 0 kts 144°
2026-05-05 15:12 45.18623 7.64697 992 ft 12 kts 115°
2026-05-05 15:12 45.18655 7.64853 992 ft 22 kts 34°
2026-05-05 15:13 45.18881 7.64889 992 ft 56 kts
2026-05-05 15:13 45.19500 7.64931 992 ft 119 kts
2026-05-05 15:13 45.20506 7.64996 1087 ft 160 kts
2026-05-05 15:13 45.21617 7.65071 1631 ft 162 kts
2026-05-05 15:14 45.22737 7.65138 2233 ft 164 kts
2026-05-05 15:14 45.23870 7.65201 2835 ft 168 kts
2026-05-05 15:14 45.25060 7.65268 3229 ft 179 kts
2026-05-05 15:14 45.26320 7.65646 3535 ft 193 kts 32°
2026-05-05 15:15 45.27214 7.67116 3846 ft 208 kts 70°
2026-05-05 15:15 45.27294 7.69222 4111 ft 230 kts 105°
2026-05-05 15:15 45.26782 7.71419 4636 ft 242 kts 108°
2026-05-05 15:15 45.26289 7.73717 5373 ft 247 kts 107°
2026-05-05 15:16 45.25813 7.76049 6161 ft 249 kts 107°
2026-05-05 15:16 45.25333 7.78404 6936 ft 252 kts 109°
2026-05-05 15:16 45.24654 7.80706 7688 ft 255 kts 120°
2026-05-05 15:16 45.23686 7.82792 8406 ft 259 kts 134°
2026-05-05 15:17 45.22151 7.84183 8825 ft 272 kts 168°
2026-05-05 15:17 45.20266 7.84082 9382 ft 279 kts 201°
2026-05-05 15:17 45.18677 7.82573 10146 ft 281 kts 229°
2026-05-05 15:17 45.17791 7.80098 10685 ft 293 kts 258°
2026-05-05 15:18 45.17923 7.77189 11036 ft 313 kts 288°
2026-05-05 15:18 45.19068 7.74518 11681 ft 322 kts 306°
2026-05-05 15:18 45.20525 7.72092 12416 ft 324 kts 308°
2026-05-05 15:18 45.21993 7.69688 13094 ft 326 kts 307°
2026-05-05 15:19 45.23442 7.67222 13759 ft 328 kts 306°
2026-05-05 15:19 45.24881 7.64699 14381 ft 332 kts 305°
2026-05-05 15:19 45.26317 7.62146 14975 ft 335 kts 306°
2026-05-05 15:19 45.27875 7.59690 15563 ft 341 kts 311°
2026-05-05 15:20 45.29671 7.57432 16144 ft 348 kts 318°
2026-05-05 15:20 45.31625 7.55369 16711 ft 352 kts 320°
2026-05-05 15:20 45.33601 7.53360 17288 ft 355 kts 320°
2026-05-05 15:20 45.35610 7.51326 17826 ft 357 kts 320°
2026-05-05 15:21 45.37648 7.49254 18376 ft 359 kts 320°
2026-05-05 15:21 45.39680 7.47179 18920 ft 362 kts 320°
2026-05-05 15:21 45.41701 7.45110 19466 ft 364 kts 320°
2026-05-05 15:21 45.43768 7.42993 19994 ft 367 kts 320°
2026-05-05 15:22 45.45846 7.40862 20517 ft 370 kts 319°
2026-05-05 15:22 45.47935 7.38715 21029 ft 372 kts 319°
2026-05-05 15:22 45.50040 7.36548 21531 ft 375 kts 319°
2026-05-05 15:22 45.52135 7.34389 22006 ft 377 kts 319°
2026-05-05 15:23 45.54274 7.32186 22497 ft 380 kts 318°
2026-05-05 15:23 45.56427 7.29961 22956 ft 383 kts 318°
2026-05-05 15:23 45.58567 7.27750 23402 ft 385 kts 318°
2026-05-05 15:23 45.60754 7.25488 23846 ft 388 kts 318°
2026-05-05 15:24 45.62933 7.23256 24286 ft 391 kts 319°
2026-05-05 15:24 45.65232 7.21147 24691 ft 396 kts 323°
2026-05-05 15:24 45.67671 7.19242 25115 ft 401 kts 327°
2026-05-05 15:24 45.70176 7.17539 25505 ft 405 kts 329°
2026-05-05 15:25 45.72737 7.15852 25871 ft 409 kts 329°
2026-05-05 15:25 45.75322 7.14159 26250 ft 411 kts 329°
2026-05-05 15:25 45.77932 7.12447 26623 ft 413 kts 328°
2026-05-05 15:25 45.80552 7.10722 26998 ft 415 kts 328°
2026-05-05 15:26 45.83154 7.09003 27364 ft 417 kts 328°
2026-05-05 15:26 45.85797 7.07251 27717 ft 420 kts 328°
2026-05-05 15:26 45.88507 7.05455 28087 ft 421 kts 328°
2026-05-05 15:26 45.91198 7.03668 28415 ft 424 kts 328°
2026-05-05 15:27 45.93887 7.01882 28753 ft 426 kts 328°
2026-05-05 15:27 45.96577 7.00091 29066 ft 428 kts 328°
2026-05-05 15:27 45.99292 6.98280 29382 ft 431 kts 328°
2026-05-05 15:27 46.02034 6.96451 29706 ft 433 kts 328°
2026-05-05 15:28 46.04775 6.94623 30019 ft 435 kts 328°
2026-05-05 15:28 46.07531 6.92777 30317 ft 437 kts 328°
2026-05-05 15:28 46.10302 6.90919 30561 ft 440 kts 328°
2026-05-05 15:28 46.13114 6.89033 30793 ft 443 kts 328°
2026-05-05 15:29 46.15931 6.87142 31037 ft 445 kts 328°
2026-05-05 15:29 46.18835 6.85193 31312 ft 446 kts 328°
2026-05-05 15:29 46.21680 6.83276 31564 ft 448 kts 328°
2026-05-05 15:29 46.24538 6.81346 31761 ft 451 kts 329°
2026-05-05 15:30 46.27364 6.79440 31977 ft 453 kts 329°
2026-05-05 15:30 46.30230 6.77505 32291 ft 453 kts 329°
2026-05-05 15:30 46.33064 6.75592 32613 ft 452 kts 329°
2026-05-05 15:30 46.35904 6.73672 32890 ft 451 kts 329°
2026-05-05 15:31 46.38701 6.71645 33164 ft 448 kts 326°
2026-05-05 15:31 46.41379 6.69398 33431 ft 445 kts 322°
2026-05-05 15:31 46.43933 6.66929 33697 ft 442 kts 318°
2026-05-05 15:31 46.46361 6.64244 33955 ft 438 kts 314°
2026-05-05 15:32 46.48655 6.61355 34189 ft 435 kts 311°
2026-05-05 15:32 46.50802 6.58303 34361 ft 434 kts 308°
2026-05-05 15:32 46.52884 6.55157 34500 ft 436 kts 308°
2026-05-05 15:32 46.54987 6.51946 34630 ft 437 kts 308°
2026-05-05 15:33 46.57086 6.48738 34767 ft 439 kts 308°
2026-05-05 15:33 46.59161 6.45573 34918 ft 441 kts 308°
2026-05-05 15:33 46.61308 6.42302 35088 ft 441 kts 309°
2026-05-05 15:33 46.63430 6.39068 35240 ft 442 kts 309°
2026-05-05 15:34 46.65554 6.35830 35386 ft 443 kts 309°
2026-05-05 15:34 46.67656 6.32622 35762 ft 444 kts 308°
2026-05-05 15:34 46.69796 6.29352 35864 ft 446 kts 309°
2026-05-05 15:35 46.74061 6.22828 35866 ft 446 kts 309°
2026-05-05 15:35 46.78363 6.16228 35868 ft 446 kts 309°
2026-05-05 15:36 46.82613 6.09689 35868 ft 447 kts 309°
2026-05-05 15:36 46.86875 6.03112 35862 ft 447 kts 309°
2026-05-05 15:37 46.91207 5.96570 35860 ft 449 kts 313°
2026-05-05 15:37 46.95943 5.90668 35857 ft 453 kts 319°
2026-05-05 15:38 47.01221 5.85509 35861 ft 457 kts 327°
2026-05-05 15:38 47.06810 5.81104 35866 ft 457 kts 329°
2026-05-05 15:39 47.12440 5.76808 35866 ft 457 kts 329°
2026-05-05 15:39 47.18090 5.72472 35860 ft 457 kts 329°
2026-05-05 15:40 47.23672 5.68160 35862 ft 457 kts 329°
2026-05-05 15:40 47.29314 5.63784 35864 ft 458 kts 330°
2026-05-05 15:41 47.34943 5.59408 35853 ft 458 kts 330°
2026-05-05 15:41 47.40582 5.55011 35859 ft 458 kts 330°
2026-05-05 15:42 47.46158 5.50555 35864 ft 457 kts 327°
2026-05-05 15:42 47.51326 5.45159 35864 ft 454 kts 318°
2026-05-05 15:43 47.55852 5.38662 35864 ft 451 kts 309°
2026-05-05 15:43 47.59674 5.31408 35848 ft 450 kts 303°
2026-05-05 15:44 47.63359 5.23916 35830 ft 450 kts 303°
2026-05-05 15:44 47.67036 5.16454 35843 ft 450 kts 303°
2026-05-05 15:45 47.70734 5.08952 35843 ft 451 kts 304°
2026-05-05 15:45 47.74401 5.01503 35841 ft 451 kts 304°
2026-05-05 15:46 47.78097 4.93974 35835 ft 451 kts 304°
2026-05-05 15:46 47.81785 4.86444 35827 ft 452 kts 304°
2026-05-05 15:47 47.85476 4.78885 35824 ft 452 kts 304°
2026-05-05 15:47 47.89163 4.71315 35827 ft 451 kts 304°
2026-05-05 15:48 47.92817 4.63788 35806 ft 451 kts 304°
2026-05-05 15:48 47.96483 4.56218 35803 ft 452 kts 304°
2026-05-05 15:49 48.00168 4.48586 35804 ft 452 kts 304°
2026-05-05 15:49 48.03802 4.41039 35820 ft 452 kts 304°
2026-05-05 15:50 48.07464 4.33414 35830 ft 452 kts 304°
2026-05-05 15:50 48.11134 4.25746 35819 ft 452 kts 304°
2026-05-05 15:51 48.14800 4.18067 35812 ft 452 kts 304°
2026-05-05 15:51 48.18446 4.10408 35806 ft 453 kts 304°
2026-05-05 15:52 48.22056 4.02796 35836 ft 453 kts 304°
2026-05-05 15:52 48.25891 3.95261 35826 ft 454 kts 309°
2026-05-05 15:53 48.30164 3.88326 35834 ft 455 kts 313°
2026-05-05 15:53 48.34544 3.81457 35811 ft 456 kts 313°
2026-05-05 15:54 48.38919 3.74560 35813 ft 455 kts 313°
2026-05-05 15:54 48.43266 3.67674 35814 ft 455 kts 313°
2026-05-05 15:55 48.47622 3.60750 35814 ft 455 kts 313°
2026-05-05 15:55 48.51940 3.53863 35802 ft 456 kts 313°
2026-05-05 15:56 48.56289 3.46910 35816 ft 456 kts 313°
2026-05-05 15:56 48.60651 3.39916 35795 ft 456 kts 313°
2026-05-05 15:57 48.64995 3.32931 35828 ft 457 kts 312°
2026-05-05 15:57 48.69340 3.25927 35823 ft 457 kts 312°
2026-05-05 15:58 48.73674 3.18917 35801 ft 456 kts 312°
2026-05-05 15:58 48.77990 3.11916 35837 ft 457 kts 313°
2026-05-05 15:59 48.82449 3.05141 35814 ft 458 kts 318°
2026-05-05 15:59 48.87458 2.99086 35838 ft 458 kts 325°
2026-05-05 16:00 48.92860 2.93965 35827 ft 459 kts 330°
2026-05-05 16:00 48.98400 2.89154 35810 ft 458 kts 331°
2026-05-05 16:01 49.03914 2.84347 35827 ft 457 kts 330°
2026-05-05 16:01 49.09410 2.79521 35818 ft 458 kts 331°
2026-05-05 16:02 49.14924 2.74661 35819 ft 458 kts 330°
2026-05-05 16:02 49.20415 2.69806 35815 ft 458 kts 330°
2026-05-05 16:03 49.25906 2.64939 35816 ft 457 kts 330°
2026-05-05 16:03 49.31384 2.60069 35821 ft 457 kts 330°
2026-05-05 16:04 49.36885 2.55164 35818 ft 457 kts 330°
2026-05-05 16:04 49.42355 2.50272 35822 ft 457 kts 330°
2026-05-05 16:05 49.47847 2.45342 35829 ft 458 kts 329°
2026-05-05 16:05 49.53094 2.39839 35818 ft 457 kts 322°
2026-05-05 16:06 49.57969 2.33554 35823 ft 456 kts 319°
2026-05-05 16:06 49.62736 2.27180 35826 ft 456 kts 319°
2026-05-05 16:07 49.67536 2.20765 35832 ft 456 kts 319°
2026-05-05 16:07 49.72305 2.14391 35827 ft 456 kts 319°
2026-05-05 16:08 49.77111 2.07954 35815 ft 455 kts 319°
2026-05-05 16:08 49.79482 2.04773 35627 ft 450 kts 319°
2026-05-05 16:08 49.81822 2.01627 35159 ft 450 kts 319°
2026-05-05 16:08 49.84163 1.98476 34583 ft 451 kts 319°
2026-05-05 16:09 49.86513 1.95308 34011 ft 448 kts 319°
2026-05-05 16:09 49.88873 1.92121 33375 ft 447 kts 319°
2026-05-05 16:09 49.91208 1.88967 32681 ft 448 kts 319°
2026-05-05 16:09 49.93543 1.85808 31942 ft 449 kts 319°
2026-05-05 16:10 49.95878 1.82645 31197 ft 450 kts 319°
2026-05-05 16:10 49.98233 1.79449 30653 ft 446 kts 320°
2026-05-05 16:10 50.00547 1.76306 30129 ft 442 kts 320°
2026-05-05 16:10 50.02849 1.73175 29596 ft 437 kts 319°
2026-05-05 16:11 50.05118 1.70086 29061 ft 433 kts 319°
2026-05-05 16:11 50.11788 1.61036 27535 ft 420 kts 320°
2026-05-05 16:12 50.13979 1.58069 27029 ft 415 kts 320°
2026-05-05 16:12 50.18289 1.52216 26013 ft 406 kts 320°
2026-05-05 16:13 50.24548 1.43681 24543 ft 393 kts 320°
2026-05-05 16:13 50.26562 1.40926 24048 ft 389 kts 320°
2026-05-05 16:13 50.28595 1.38141 23561 ft 385 kts 320°
2026-05-05 16:14 50.32546 1.32723 22611 ft 378 kts 319°
2026-05-05 16:14 50.36481 1.27314 21641 ft 372 kts 319°
2026-05-05 16:15 50.40316 1.22032 20695 ft 367 kts 319°
2026-05-05 16:15 50.44122 1.16773 19770 ft 362 kts 319°
2026-05-05 16:16 50.47849 1.11614 18869 ft 358 kts 319°
2026-05-05 16:16 50.51526 1.06425 17971 ft 354 kts 316°
2026-05-05 16:17 50.54886 1.00894 17092 ft 350 kts 314°
2026-05-05 16:17 50.56542 0.98094 16649 ft 348 kts 314°
2026-05-05 16:18 50.59802 0.92573 15921 ft 343 kts 314°
2026-05-05 16:18 50.61425 0.89826 15911 ft 344 kts 314°
2026-05-05 16:18 50.64632 0.84392 15905 ft 342 kts 314°
2026-05-05 16:19 50.66243 0.81660 15904 ft 343 kts 314°
2026-05-05 16:19 50.67810 0.78910 15896 ft 329 kts 311°
2026-05-05 16:19 50.70620 0.73453 15837 ft 314 kts 310°
2026-05-05 16:20 50.73376 0.68035 15054 ft 313 kts 310°
2026-05-05 16:20 50.76082 0.62715 14314 ft 310 kts 310°
2026-05-05 16:21 50.78767 0.57429 13581 ft 308 kts 310°
2026-05-05 16:22 50.82706 0.49546 12527 ft 304 kts 303°
2026-05-05 16:22 50.84124 0.43282 11881 ft 301 kts 287°
2026-05-05 16:23 50.85195 0.36970 11227 ft 297 kts 287°
2026-05-05 16:23 50.85729 0.33812 10899 ft 295 kts 286°
2026-05-05 16:23 50.86780 0.27614 10248 ft 291 kts 286°
2026-05-05 16:24 50.87310 0.24505 9922 ft 289 kts 286°
2026-05-05 16:24 50.87824 0.21469 9600 ft 287 kts 286°
2026-05-05 16:24 50.88833 0.15377 8915 ft 285 kts 286°
2026-05-05 16:25 50.89332 0.12308 8568 ft 283 kts 286°
2026-05-05 16:25 50.90295 0.06305 7889 ft 280 kts 286°
2026-05-05 16:25 50.90770 0.03302 7569 ft 278 kts 286°
2026-05-05 16:26 50.91685 -0.02579 6920 ft 275 kts 286°
2026-05-05 16:26 50.92578 -0.08430 6272 ft 272 kts 286°
2026-05-05 16:27 50.93014 -0.11324 6005 ft 270 kts 286°
2026-05-05 16:27 50.93442 -0.14172 5971 ft 263 kts 286°
2026-05-05 16:27 50.93859 -0.16945 5966 ft 256 kts 286°
2026-05-05 16:27 50.94261 -0.19638 5962 ft 244 kts 286°
2026-05-05 16:28 50.94647 -0.22243 5968 ft 242 kts 286°
2026-05-05 16:28 50.95027 -0.24830 5971 ft 241 kts 286°
2026-05-05 16:28 50.95406 -0.27415 5972 ft 241 kts 286°
2026-05-05 16:28 50.95780 -0.29981 5954 ft 239 kts 286°
2026-05-05 16:29 50.96148 -0.32541 5687 ft 238 kts 286°
2026-05-05 16:29 50.96511 -0.35073 5371 ft 239 kts 286°
2026-05-05 16:29 50.96953 -0.37630 5071 ft 236 kts 300°
2026-05-05 16:29 50.97927 -0.39604 4779 ft 229 kts 321°
2026-05-05 16:30 50.99158 -0.41222 4498 ft 228 kts 326°
2026-05-05 16:30 51.00413 -0.42751 4217 ft 227 kts 326°
2026-05-05 16:30 51.01673 -0.44263 3940 ft 227 kts 326°
2026-05-05 16:30 51.02928 -0.45772 3671 ft 226 kts 326°
2026-05-05 16:31 51.04165 -0.47262 3409 ft 226 kts 326°
2026-05-05 16:31 51.05416 -0.48772 3146 ft 225 kts 326°
2026-05-05 16:31 51.06667 -0.50240 2985 ft 221 kts 333°
2026-05-05 16:31 51.08107 -0.50884 2972 ft 212 kts
2026-05-05 16:32 51.09423 -0.50139 2962 ft 198 kts 40°
2026-05-05 16:32 51.10252 -0.48480 2976 ft 187 kts 58°
2026-05-05 16:32 51.10816 -0.46609 2981 ft 187 kts 68°
2026-05-05 16:32 51.11201 -0.44717 3105 ft 179 kts 71°
2026-05-05 16:33 51.11535 -0.42817 2950 ft 177 kts 73°
2026-05-05 16:33 51.11824 -0.40922 2719 ft 176 kts 75°
2026-05-05 16:33 51.12088 -0.39035 2504 ft 169 kts 75°
2026-05-05 16:33 51.12326 -0.37260 2285 ft 159 kts 75°
2026-05-05 16:34 51.12552 -0.35579 2067 ft 153 kts 75°
2026-05-05 16:34 51.12776 -0.33927 1860 ft 152 kts 75°
2026-05-05 16:34 51.12998 -0.32299 1665 ft 152 kts 75°
2026-05-05 16:34 51.13225 -0.30634 1462 ft 152 kts 76°
2026-05-05 16:35 51.13447 -0.29001 1258 ft 147 kts 76°
2026-05-05 16:35 51.13655 -0.27474 1050 ft 133 kts 76°
2026-05-05 16:35 51.13844 -0.26099 871 ft 124 kts 76°
2026-05-05 16:35 51.14026 -0.24762 725 ft 123 kts 77°
2026-05-05 16:36 51.14213 -0.23429 569 ft 124 kts 77°
2026-05-05 16:36 51.14393 -0.22120 392 ft 124 kts 78°
2026-05-05 16:36 51.14578 -0.20757 240 ft 124 kts 78°
2026-05-05 16:36 51.14758 -0.19430 201 ft 120 kts 78°
2026-05-05 16:37 51.14899 -0.18399 200 ft 70 kts 77°
2026-05-05 16:37 51.14973 -0.17868 200 ft 40 kts 77°
2026-05-05 16:37 51.15032 -0.17461 200 ft 32 kts 72°
2026-05-05 16:37 51.15090 -0.17276 200 ft 12 kts 58°
2026-05-05 16:38 51.15126 -0.17208 200 ft 7 kts 29°
2026-05-05 16:38 51.15147 -0.17201 200 ft 0 kts 358°
2026-05-05 16:40 51.15165 -0.17212 200 ft 8 kts 328°
2026-05-05 16:40 51.15248 -0.17317 200 ft 19 kts 324°
2026-05-05 16:41 51.15355 -0.17336 200 ft 17 kts 52°
2026-05-05 16:41 51.15403 -0.17137 200 ft 19 kts 70°
2026-05-05 16:41 51.15433 -0.16938 200 ft 16 kts 78°
2026-05-05 16:41 51.15453 -0.16790 200 ft 9 kts 79°
2026-05-05 16:42 51.15489 -0.16771 200 ft 5 kts 347°
2026-05-05 16:42 51.15508 -0.16777 200 ft 0 kts 348°